Regional Weather Roundup
Issued by NWS Little Rock, AR

Home | Current Version | Previous Version | Text Only | Print | Product List | Glossary Off
Versions: 1 2 3 4 5 6 7 8 9 10 11 12 13 14 15 16 17 18 19 20 21 22 23 24 25 26 27 28 29 30 31 32 33 34 35 36 37 38 39 40 41 42 43 44 45 46 47 48 49 50

000
ASUS44 KLZK 252205
RWRLZK

WEATHER ROUNDUP FOR ARKANSAS
NATIONAL WEATHER SERVICE LITTLE ROCK AR
400 PM CST SUN JAN 25 2015

NOTE: "FAIR" INDICATES FEW OR NO CLOUDS BELOW 12,000 FEET WITH NO
SIGNIFICANT WEATHER AND/OR OBSTRUCTIONS TO VISIBILITY.

ARZ001-003-010-029-252300-
NORTHWEST ARKANSAS

CITY           SKY/WX    TMP DP  RH WIND       PRES   REMARKS
FAYETTEVILLE   CLOUDY    43  32  65 NW20G26   29.93R
FORT SMITH     CLOUDY    52  31  44 NW13      29.94R
HARRISON       CLOUDY    40  33  76 NW16G28   29.85R
BENTONVILLE    CLOUDY    43  30  61 NW17G25   29.93R
ROGERS         CLOUDY    42  32  67 NW17G29   29.91R
SILOAM SPGS    CLOUDY    45  28  53 NW21G30   29.95R
HIGHFILL       LGT RAIN  43  32  65 NW20G30   29.92R
SPRINGDALE     CLOUDY    43  32  65 NW17G29   29.93R
$$

ARZ004-005-016-252300-
NORTH CENTRAL ARKANSAS

CITY           SKY/WX    TMP DP  RH WIND       PRES   REMARKS
BATESVILLE     CLOUDY    46  34  61 W14G20    29.79R
FLIPPIN        CLOUDY   N/A N/A N/A NW18G29   29.83R
MTN HOME       CLOUDY    40  34  79 NW12G21   29.82R
$$

ARZ040-041-252300-
WEST CENTRAL ARKANSAS

CITY           SKY/WX    TMP DP  RH WIND       PRES   REMARKS
MENA           CLOUDY    54  34  47 NW15G35   29.92R
MOUNT IDA      CLOUDY    53  32  44 N13G28    29.87R
$$

ARZ009-017-025-026-028-252300-
NORTHEAST ARKANSAS

CITY           SKY/WX    TMP DP  RH WIND       PRES   REMARKS
JONESBORO      LGT RAIN  47  39  74 W21G30    29.73R
NEWPORT        PTSUNNY   48  39  71 W24       29.78R
WALNUT RIDGE   CLOUDY    46  37  71 W22G30    29.73R
BLYTHEVILLE    CLOUDY    48  42  80 NW16G26   29.71R
$$

ARZ022-023-033-042-044-252300-
CENTRAL ARKANSAS

CITY           SKY/WX    TMP DP  RH WIND       PRES   REMARKS
LITTLE ROCK    CLOUDY    54  33  45 W26G37    29.84R
N LITTLE ROCK  CLOUDY    52  38  58 W12G28    29.84R
JACKSONVILLE   CLOUDY    52  36  53 W17G24    29.82R
SEARCY         PTSUNNY   50  39  66 NW12G22   29.82R
HOT SPRINGS    CLOUDY    53  34  48 W9G18     29.87R
RUSSELLVILLE   CLOUDY    51  33  50 NW16G26   29.86R
CLINTON        CLOUDY    46  37  71 W10G18    29.85R
$$

ARZ036-252300-
EAST ARKANSAS

CITY           SKY/WX    TMP DP  RH WIND       PRES   REMARKS
WEST MEMPHIS   CLOUDY    51  44  77 NW9G18    29.73R
$$

ARZ050-053-066-070-073-252300-
SOUTHWEST ARKANSAS

CITY           SKY/WX    TMP DP  RH WIND       PRES   REMARKS
ARKADELPHIA    FAIR      58  35  42 W15       29.89R
CAMDEN         PTSUNNY   59  30  33 MISG      29.87R
TEXARKANA      MOSUNNY   60  32  34 W21G32    29.91R
EL DORADO      CLOUDY    60  33  36 W15G25    29.88R
DE QUEEN       LGT RAIN  59  32  36 NW18G29   29.92R
$$

ARZ056-057-069-252300-
SOUTHEAST ARKANSAS

CITY           SKY/WX    TMP DP  RH WIND       PRES   REMARKS
PINE BLUFF     CLOUDY    56  33  42 W21G28    29.83R
STUTTGART      CLOUDY    55  36  47 W22       29.81R
MONTICELLO     CLOUDY    60  33  36 NW15G23   29.82R

$$





USA.gov is the U.S. government's official web portal to all federal, state and local government web resources and services.